Volver al catálogo

STARLINK-33928

ActivoComunicacionesVLEO
NORAD 64003·PAYLOAD·🇺🇸 United States

Lanzado May 14, 2025 desde Cape Canaveral Space Force Station

Loading…

Próximos Pases (próximas 24 horas)

TLE

ActualizadoSource: CelesTrak SupGP

Época: Sep 14, 2026, 21:00 UTC

1 64003C 25101K   26257.87548611  .00023953  00000+0  86756-3 0  2577
2 64003  43.0031   9.1700 0001493 272.7802  67.0613 15.27566584    11

Sigue STARLINK-33928 en tiempo real con AllMySat

Download on the App Store